Meteo pe oră la Bucureşti

Astăzi, 27 Iulie, Marţi

Timp Temperatura Precipitaţii Vânt Presiune Umiditate
00:00 +24°C° 0 mm 1 m/s 757 mmHg 44%
01:00 +24°C° 0 mm 1 m/s 757 mmHg 46%
02:00 +23°C° 0 mm 1 m/s 757 mmHg 47%
03:00 +23°C° 0 mm 1 m/s 757 mmHg 48%
04:00 +22°C° 0 mm 1 m/s 757 mmHg 49%
05:00 +20°C° 0 mm 0 m/s 757 mmHg 51%
06:00 +22°C° 0 mm 0 m/s 757 mmHg 48%
07:00 +24°C° 0 mm 0 m/s 757 mmHg 44%
08:00 +26°C° 0 mm 0 m/s 757 mmHg 41%
09:00 +29°C° 0 mm 1 m/s 757 mmHg 38%
10:00 +31°C° 0 mm 1 m/s 757 mmHg 34%
11:00 +34°C° 0 mm 2 m/s 757 mmHg 31%
12:00 +35°C° 0 mm 2 m/s 756 mmHg 30%
13:00 +36°C° 0 mm 2 m/s 756 mmHg 29%
14:00 +36°C° 0 mm 1 m/s 756 mmHg 28%
15:00 +36°C° 0 mm 1 m/s 755 mmHg 28%
16:00 +36°C° 0 mm 1 m/s 755 mmHg 27%
17:00 +36°C° 0 mm 1 m/s 755 mmHg 27%
18:00 +35°C° 0 mm 1 m/s 755 mmHg 31%
19:00 +34°C° 0 mm 2 m/s 755 mmHg 36%
20:00 +31°C° 0 mm 2 m/s 755 mmHg 40%
21:00 +30°C° 0 mm 2 m/s 755 mmHg 41%
22:00 +29°C° 0 mm 2 m/s 755 mmHg 42%
23:00 +28°C° 0 mm 2 m/s 755 mmHg 43%

Mâine, 28 Iulie, Miercuri

Timp Temperatura Precipitaţii Vânt Presiune Umiditate
00:00 +27°C° 0 mm 2 m/s 755 mmHg 43%
01:00 +26°C° 0 mm 2 m/s 755 mmHg 43%
02:00 +26°C° 0 mm 1 m/s 755 mmHg 43%
03:00 +25°C° 0 mm 1 m/s 755 mmHg 43%
04:00 +25°C° 0 mm 1 m/s 755 mmHg 43%
05:00 +24°C° 0 mm 1 m/s 755 mmHg 43%
06:00 +26°C° 0 mm 1 m/s 755 mmHg 41%
07:00 +28°C° 0 mm 1 m/s 755 mmHg 38%
08:00 +30°C° 0 mm 1 m/s 755 mmHg 35%
09:00 +32°C° 0 mm 1 m/s 755 mmHg 32%
10:00 +34°C° 0 mm 1 m/s 754 mmHg 29%
11:00 +36°C° 0 mm 1 m/s 754 mmHg 26%
12:00 +39°C° 0 mm 1 m/s 754 mmHg 25%
13:00 +40°C° 0 mm 1 m/s 753 mmHg 23%
14:00 +41°C° 0 mm 1 m/s 753 mmHg 22%
15:00 +41°C° 0 mm 1 m/s 752 mmHg 22%
16:00 +41°C° 0 mm 2 m/s 752 mmHg 21%
17:00 +41°C° 0 mm 2 m/s 751 mmHg 21%
18:00 +36°C° 0.2 mm 4 m/s 752 mmHg 33%
19:00 +32°C° 0.2 mm 6 m/s 753 mmHg 45%
20:00 +27°C° 0.2 mm 8 m/s 754 mmHg 57%
21:00 +27°C° 0.1 mm 6 m/s 754 mmHg 57%
22:00 +26°C° 0.1 mm 4 m/s 754 mmHg 58%
23:00 +26°C° 0.1 mm 2 m/s 753 mmHg 59%

Poimâine, 29 Iulie, Joi

Timp Temperatura Precipitaţii Vânt Presiune Umiditate
00:00 +25°C° 0 mm 2 m/s 753 mmHg 59%
01:00 +25°C° 0 mm 2 m/s 753 mmHg 60%
02:00 +24°C° 0 mm 2 m/s 753 mmHg 61%
03:00 +24°C° 0 mm 2 m/s 753 mmHg 62%
04:00 +24°C° 0 mm 1 m/s 752 mmHg 63%
05:00 +24°C° 0 mm 1 m/s 752 mmHg 64%
06:00 +25°C° 0 mm 1 m/s 752 mmHg 59%
07:00 +27°C° 0 mm 2 m/s 752 mmHg 53%
08:00 +29°C° 0 mm 2 m/s 753 mmHg 48%
09:00 +31°C° 0 mm 2 m/s 752 mmHg 43%
10:00 +34°C° 0 mm 2 m/s 752 mmHg 37%
11:00 +36°C° 0 mm 3 m/s 752 mmHg 32%
12:00 +38°C° 0 mm 3 m/s 752 mmHg 30%
13:00 +39°C° 0 mm 2 m/s 751 mmHg 27%
14:00 +40°C° 0 mm 2 m/s 751 mmHg 24%
15:00 +38°C° 0.1 mm 4 m/s 751 mmHg 29%
16:00 +38°C° 0.1 mm 6 m/s 751 mmHg 33%
17:00 +35°C° 0.1 mm 7 m/s 751 mmHg 38%
18:00 +32°C° 0.5 mm 6 m/s 751 mmHg 46%
19:00 +29°C° 0.5 mm 4 m/s 752 mmHg 54%
20:00 +27°C° 0.5 mm 3 m/s 752 mmHg 62%
21:00 +26°C° 0 mm 2 m/s 752 mmHg 62%
22:00 +26°C° 0 mm 2 m/s 752 mmHg 63%
23:00 +25°C° 0 mm 1 m/s 751 mmHg 64%

30 Iulie, Vineri

Timp Temperatura Precipitaţii Vânt Presiune Umiditate
00:00 +25°C° 0 mm 1 m/s 752 mmHg 65%
01:00 +24°C° 0 mm 1 m/s 752 mmHg 66%
02:00 +24°C° 0 mm 1 m/s 752 mmHg 67%
03:00 +23°C° 0 mm 2 m/s 752 mmHg 68%
04:00 +23°C° 0 mm 2 m/s 752 mmHg 69%
05:00 +22°C° 0 mm 3 m/s 752 mmHg 70%
06:00 +24°C° 0 mm 3 m/s 752 mmHg 67%
07:00 +26°C° 0 mm 3 m/s 752 mmHg 63%
08:00 +28°C° 0 mm 3 m/s 752 mmHg 59%
09:00 +30°C° 0 mm 3 m/s 752 mmHg 53%
10:00 +33°C° 0 mm 3 m/s 752 mmHg 47%
11:00 +35°C° 0 mm 3 m/s 752 mmHg 41%
12:00 +36°C° 0 mm 3 m/s 751 mmHg 38%
13:00 +37°C° 0 mm 3 m/s 751 mmHg 34%
14:00 +38°C° 0 mm 3 m/s 750 mmHg 31%
15:00 +38°C° 0 mm 2 m/s 750 mmHg 30%
16:00 +38°C° 0 mm 2 m/s 750 mmHg 29%
17:00 +39°C° 0 mm 2 m/s 749 mmHg 28%
18:00 +37°C° 0 mm 2 m/s 749 mmHg 33%
19:00 +35°C° 0 mm 3 m/s 749 mmHg 38%
20:00 +33°C° 0 mm 3 m/s 749 mmHg 42%
21:00 +30°C° 0 mm 3 m/s 749 mmHg 44%
22:00 +29°C° 0 mm 3 m/s 749 mmHg 46%
23:00 +28°C° 0 mm 3 m/s 749 mmHg 48%

31 Iulie, Sâmbătă

Timp Temperatura Precipitaţii Vânt Presiune Umiditate
00:00 +27°C° 0 mm 3 m/s 749 mmHg 48%
01:00 +27°C° 0 mm 2 m/s 749 mmHg 49%
02:00 +26°C° 0 mm 2 m/s 749 mmHg 49%
03:00 +26°C° 0 mm 2 m/s 749 mmHg 50%
04:00 +25°C° 0 mm 2 m/s 749 mmHg 52%
05:00 +25°C° 0 mm 2 m/s 749 mmHg 53%
06:00 +27°C° 0 mm 2 m/s 749 mmHg 49%
07:00 +29°C° 0 mm 2 m/s 749 mmHg 44%
08:00 +30°C° 0 mm 1 m/s 749 mmHg 40%
09:00 +33°C° 0 mm 1 m/s 749 mmHg 36%
10:00 +35°C° 0 mm 1 m/s 749 mmHg 32%
11:00 +37°C° 0 mm 1 m/s 749 mmHg 27%
12:00 +40°C° 0 mm 1 m/s 748 mmHg 25%
13:00 +41°C° 0 mm 1 m/s 748 mmHg 22%
14:00 +43°C° 0 mm 1 m/s 748 mmHg 20%
15:00 +41°C° 0 mm 2 m/s 748 mmHg 22%
16:00 +40°C° 0 mm 3 m/s 748 mmHg 25%
17:00 +39°C° 0 mm 5 m/s 748 mmHg 27%
18:00 +34°C° 0.2 mm 5 m/s 748 mmHg 39%
19:00 +30°C° 0.2 mm 5 m/s 749 mmHg 50%
20:00 +26°C° 0.2 mm 5 m/s 750 mmHg 61%
21:00 +26°C° 0.2 mm 4 m/s 750 mmHg 63%
22:00 +26°C° 0.2 mm 4 m/s 750 mmHg 64%
23:00 +26°C° 0.2 mm 4 m/s 750 mmHg 65%

1 August, Duminică

Timp Temperatura Precipitaţii Vânt Presiune Umiditate
00:00 +25°C° 0 mm 3 m/s 750 mmHg 68%
01:00 +24°C° 0 mm 3 m/s 751 mmHg 72%
02:00 +23°C° 0 mm 2 m/s 751 mmHg 75%
03:00 +22°C° 0 mm 3 m/s 751 mmHg 77%
04:00 +22°C° 0 mm 3 m/s 750 mmHg 79%
05:00 +22°C° 0 mm 3 m/s 750 mmHg 80%
06:00 +25°C° 0 mm 4 m/s 750 mmHg 75%
07:00 +26°C° 0 mm 4 m/s 750 mmHg 69%
08:00 +28°C° 0 mm 5 m/s 751 mmHg 63%
09:00 +30°C° 0 mm 4 m/s 750 mmHg 55%
10:00 +33°C° 0 mm 4 m/s 750 mmHg 46%
11:00 +35°C° 0 mm 3 m/s 750 mmHg 38%
12:00 +37°C° 0 mm 3 m/s 750 mmHg 34%
13:00 +38°C° 0 mm 2 m/s 749 mmHg 30%
14:00 +40°C° 0 mm 1 m/s 749 mmHg 26%
15:00 +40°C° 0 mm 1 m/s 748 mmHg 25%
16:00 +40°C° 0 mm 1 m/s 748 mmHg 25%
17:00 +41°C° 0 mm 1 m/s 748 mmHg 24%
18:00 +38°C° 0 mm 2 m/s 748 mmHg 29%
19:00 +36°C° 0 mm 3 m/s 748 mmHg 33%
20:00 +33°C° 0 mm 4 m/s 748 mmHg 38%
21:00 +31°C° 0 mm 3 m/s 748 mmHg 40%
22:00 +29°C° 0 mm 3 m/s 748 mmHg 42%
23:00 +28°C° 0 mm 3 m/s 748 mmHg 43%
Arată mai mult

Formular de consimțământ

Meteoprog și furnizorii noștri de servicii pot stoca și accesa date personale, precum cookies, identificatori de dispozitiv sau alte tehnologii similare pe dispozitivul dumneavoastră și procesa astfel de date pentru a personaliza conținutul și reclamele, dar și pentru a oferi caracteristici de social media și pentru a analiza traficul.

  • Stocarea și/sau accesarea informațiilor pe dispozitivul dumneavoastră

    Cookies, identificatori de dispozitiv sau alte informații pot fi stocate sau accesate pe dispozitiv în scopurile indicate mai sus.

  • Reclame și conținut personalizat, evaluarea reclamelor și a conținutului, informații despre audiențe și dezvoltarea produselor

    Reclamele și conținutul pot fi personalizate pe baza unui profil. Pot fi adăugate date suplimentare pentru a personaliza mai bine reclamele și conținutul. Performanța reclamelor și conținutului poate fi măsurată. Pot fi obținute informații despre utilizatorii care au văzut reclamele și conținutul. Aceste date pot fi utilizate pentru a dezvolta sau îmbunătăți experiența utilizatorilor, sistemele și software-ul.

Dând clic pe ‘Sunt de acord’, permiteți utilizarea cookie-urilor menționate, a identificatorilor de dispozitiv, balizelor web sau altor tehnologii similare. Setările pot fi modificate din browser-ul dispozitivului dumneavoastră.

În anumite scopuri, interesele legitime pot prima asupra consimțământului. Puteți citi mai multe informații în acest sens în Politica privind Confidențialitatea Datelor și Cookie.